AI4ZL Weather Reports


time (UTC)temp
C
wind
direction
speed
KPH
gust
KPH
rain 1hr
cm
rain 24hr
cm
rain mn
cm
humidity
%
barometer
mb
20260509095017 11 0.0 0.0 0.00 0.10 0.10 99 1009.5
20260509094022 11 0.0 0.0 0.00 0.10 0.10 99 1009.5
20260509093027 12 0.0 0.0 0.00 0.10 0.10 99 1009.7
20260509092032 12 0.0 0.0 0.00 0.10 0.10 99 1009.6
20260509091020 12 0.0 0.0 0.00 0.10 0.10 99 1009.6
20260509090046 12 0.0 0.0 0.00 0.10 0.10 99 1009.8
20260509085030 12 0.0 0.0 0.00 0.10 0.10 99 1010.0
20260509084018 12 0.0 0.0 0.00 0.10 0.10 98 1010.1
20260509083024 12 128 0.0 3.2 0.00 0.10 0.10 98 1010.1
20260509082028 12 0.0 0.0 0.03 0.10 0.10 98 1009.9
20260509081016 12 0.0 0.0 0.05 0.10 0.10 97 1009.8
20260509080042 13 43 0.0 1.6 0.05 0.10 0.10 97 1009.7
20260509075026 13 0.0 0.0 0.10 0.10 0.10 97 1009.7
20260509074112 13 37 0.0 1.6 0.10 0.10 0.10 96 1009.6
20260509073039 13 33 0.0 1.6 0.10 0.10 0.10 94 1009.9
20260509072024 14 0.0 0.0 0.08 0.08 0.08 91 1010.2
20260509071028 14 270 1.6 3.2 0.05 0.05 0.05 89 1010.4
20260509070016 15 288 3.2 6.4 0.05 0.05 0.05 85 1010.7
20260509065042 16 270 4.8 9.7 0.00 0.00 0.00 78 1010.2
20260509064026 16 303 1.6 3.2 0.00 0.00 0.00 77 1009.8
20260509063032 16 263 1.6 6.4 0.00 0.00 0.00 77 1009.9
20260509062019 16 208 1.6 6.4 0.00 0.00 0.00 76 1009.7
20260509061024 16 217 1.6 3.2 0.00 0.00 0.00 75 1009.9
20260509060030 16 222 1.6 3.2 0.00 0.00 0.00 76 1009.9
20260509055037 16 230 1.6 3.2 0.00 0.00 0.00 77 1009.8
20260509054022 16 144 1.6 4.8 0.00 0.00 0.00 77 1009.8
20260509053027 16 208 1.6 4.8 0.00 0.00 0.00 76 1010.0
20260509052032 16 111 1.6 4.8 0.00 0.00 0.00 76 1010.1
20260509051021 16 115 1.6 3.2 0.00 0.00 0.00 75 1010.0
20260509050026 16 86 0.0 3.2 0.00 0.00 0.00 77 1010.1
20260509045030 16 108 0.0 1.6 0.00 0.00 0.00 77 1010.1
20260509044018 16 56 0.0 1.6 0.00 0.00 0.00 76 1010.1
20260509043023 16 292 0.0 1.6 0.00 0.00 0.00 76 1010.5
20260509042028 15 208 0.0 1.6 0.00 0.00 0.00 77 1010.5
20260509041017 15 0.0 0.0 0.00 0.00 0.00 79 1010.4
20260509040021 14 286 0.0 1.6 0.00 0.00 0.00 86 1010.7
20260509035026 14 300 0.0 1.6 0.00 0.00 0.00 87 1010.9
20260509034030 14 0.0 0.0 0.00 0.00 0.00 86 1010.6
20260509033019 13 0.0 0.0 0.00 0.00 0.00 86 1010.6
20260509032024 13 0.0 0.0 0.00 0.00 0.00 87 1010.7
20260509031028 13 0.0 0.0 0.00 0.00 0.00 87 1010.8
20260509030016 13 0.0 0.0 0.00 0.00 0.00 86 1010.7
20260509025021 14 0.0 0.0 0.00 0.00 0.00 82 1010.7
20260509024027 14 0.0 0.0 0.00 0.00 0.00 79 1010.6
20260509023031 14 0.0 0.0 0.00 0.00 0.00 80 1010.7
20260509022020 14 0.0 0.0 0.00 0.00 0.00 81 1010.5
20260509021024 14 0.0 0.0 0.00 0.00 0.00 82 1010.5
20260509020029 15 0.0 0.0 0.00 0.00 0.00 80 1010.4
20260509015018 15 0.0 0.0 0.00 0.00 0.00 79 1010.3
20260509014023 15 0.0 0.0 0.00 0.00 0.00 77 1010.2
20260509013048 16 0.0 0.0 0.00 0.00 0.00 74 1010.4
20260509012033 16 0.0 0.0 0.00 0.00 0.00 71 1010.4
20260509011021 17 0.0 0.0 0.00 0.00 0.00 69 1010.4
20260509010026 18 0.0 0.0 0.00 0.00 0.00 62 1010.5
20260509005030 19 0.0 0.0 0.00 0.00 0.00 59 1010.6
20260509004019 20 299 0.0 1.6 0.00 0.00 0.00 57 1010.7
20260509003024 21 202 1.6 4.8 0.00 0.00 0.00 54 1010.9
20260509002049 21 203 3.2 4.8 0.00 0.00 0.00 53 1011.0
20260509001016 21 201 4.8 6.4 0.00 0.00 0.00 51 1011.0
20260509000021 21 209 3.2 9.7 0.00 0.00 0.00 51 1010.9
20260508235026 22 192 3.2 9.7 0.00 0.00 0.00 52 1010.9
20260508234031 22 184 4.8 9.7 0.00 0.00 0.00 51 1011.1
20260508233020 22 195 4.8 11.3 0.00 0.00 0.00 50 1011.1
20260508232044 22 203 4.8 11.3 0.00 0.00 0.00 49 1011.1
20260508231029 22 225 6.4 11.3 0.00 0.00 0.00 48 1011.1
20260508230017 23 183 3.2 11.3 0.00 0.00 0.00 48 1011.3
20260508225022 23 195 3.2 9.7 0.00 0.00 0.00 50 1011.4
20260508224027 23 129 3.2 9.7 0.00 0.00 0.00 49 1011.3
20260508223052 23 201 4.8 14.5 0.00 0.00 0.00 49 1011.3
20260508222100 23 219 3.2 11.3 0.00 0.00 0.00 49 1011.3
20260508221045 23 197 4.8 12.9 0.00 0.00 0.00 48 1011.3
20260508220029 23 181 4.8 12.9 0.00 0.00 0.00 49 1011.6
20260508215017 23 245 4.8 16.1 0.00 0.00 0.00 48 1011.6
20260508214043 23 181 4.8 11.3 0.00 0.00 0.00 49 1011.6
20260508213109 23 245 4.8 16.1 0.00 0.00 0.00 48 1011.9
20260508212053 23 176 3.2 9.7 0.00 0.00 0.00 47 1012.0
20260508211020 23 209 1.6 6.4 0.00 0.00 0.00 49 1012.3
20260508210026 23 203 3.2 9.7 0.00 0.00 0.00 49 1011.9
20260508205031 23 156 4.8 11.3 0.00 0.00 0.00 50 1012.0
20260508204019 23 225 4.8 14.5 0.00 0.00 0.00 50 1012.2
20260508203044 23 242 6.4 17.7 0.00 0.00 0.00 50 1012.4
20260508202028 23 193 3.2 9.7 0.00 0.00 0.00 51 1012.5
20260508201036 23 181 4.8 14.5 0.00 0.00 0.00 51 1012.6
20260508195026 23 179 4.8 11.3 0.00 0.00 0.00 51 1012.7
20260508194031 23 243 8.0 14.5 0.00 0.00 0.00 51 1013.0
20260508193021 22 203 4.8 12.9 0.00 0.00 0.00 51 1013.1
20260508192025 23 246 6.4 22.5 0.00 0.00 0.00 52 1013.4
20260508191029 22 217 3.2 9.7 0.00 0.00 0.00 53 1013.3
20260508190017 23 238 4.8 16.1 0.00 0.00 0.00 52 1013.7
20260508185022 22 203 4.8 11.3 0.00 0.00 0.00 51 1014.1
20260508184047 22 233 4.8 12.9 0.00 0.00 0.00 53 1014.1
20260508183032 22 244 9.7 17.7 0.00 0.00 0.00 53 1014.3
20260508182020 22 248 4.8 14.5 0.00 0.00 0.00 53 1014.7
20260508181025 22 150 4.8 11.3 0.00 0.00 0.00 55 1014.6
20260508180030 21 206 4.8 11.3 0.00 0.00 0.00 54 1014.7
20260508175018 21 248 4.8 16.1 0.00 0.00 0.00 55 1014.9
20260508174043 21 205 6.4 16.1 0.00 0.00 0.00 55 1015.0
20260508173029 21 251 8.0 20.9 0.00 0.00 0.00 55 1015.1
20260508172034 21 207 6.4 14.5 0.00 0.00 0.00 56 1015.2
20260508171020 21 250 9.7 12.9 0.00 0.00 0.00 56 1015.1
20260508170025 21 233 6.4 20.9 0.00 0.00 0.00 56 1015.5
20260508165030 20 255 6.4 14.5 0.00 0.00 0.00 57 1015.7
20260508164019 20 246 4.8 14.5 0.00 0.00 0.00 57 1015.8
20260508163023 20 217 6.4 16.1 0.00 0.00 0.00 58 1015.9
20260508162028 20 241 4.8 17.7 0.00 0.00 0.00 58 1016.0
20260508161016 20 192 6.4 11.3 0.00 0.00 0.00 59 1016.2
20260508160022 20 176 6.4 12.9 0.00 0.00 0.00 59 1016.3
20260508155026 20 142 3.2 14.5 0.00 0.00 0.00 59 1016.4
20260508154031 20 230 4.8 14.5 0.00 0.00 0.00 59 1016.6
20260508153020 19 225 4.8 12.9 0.00 0.00 0.00 60 1016.7
20260508152024 19 205 4.8 14.5 0.00 0.00 0.00 59 1016.9
20260508151029 18 216 3.2 6.4 0.00 0.00 0.00 63 1017.0
20260508150038 18 191 4.8 12.9 0.00 0.00 0.00 62 1017.0
20260508145043 18 199 3.2 14.5 0.00 0.00 0.00 62 1017.1
20260508144027 18 244 4.8 14.5 0.00 0.00 0.00 63 1017.5
20260508143032 17 210 3.2 11.3 0.00 0.00 0.00 63 1017.5
20260508142020 17 222 3.2 6.4 0.00 0.00 0.00 66 1017.4
20260508141025 17 252 6.4 12.9 0.00 0.00 0.00 65 1017.5
20260508140031 16 231 3.2 11.3 0.00 0.00 0.00 67 1017.5
20260508135038 16 193 4.8 11.3 0.00 0.00 0.00 66 1017.5
20260508134023 15 230 1.6 11.3 0.00 0.00 0.00 67 1017.7
20260508133028 15 218 3.2 11.3 0.00 0.00 0.00 67 1017.6
20260508132033 15 190 1.6 6.4 0.00 0.00 0.00 68 1017.7
20260508131021 14 220 1.6 6.4 0.00 0.00 0.00 68 1017.7
20260508130046 13 202 1.6 6.4 0.00 0.00 0.00 70 1017.6
20260508125032 13 178 1.6 4.8 0.00 0.00 0.00 72 1017.5
20260508124019 13 190 1.6 4.8 0.00 0.00 0.00 73 1017.5
20260508123024 12 189 1.6 3.2 0.00 0.00 0.00 75 1017.6
20260508122029 11 153 0.0 3.2 0.00 0.00 0.00 80 1017.2
20260508121016 10 116 1.6 3.2 0.00 0.00 0.00 83 1017.2
20260508120038 9 118 0.0 1.6 0.00 0.00 0.00 86 1017.2
20260508115026 8 103 0.0 1.6 0.00 0.00 0.00 91 1017.1
20260508114031 7 0.0 0.0 0.00 0.00 0.00 93 1016.8
20260508113036 7 110 0.0 1.6 0.00 0.00 0.00 97 1016.6
20260508112042 6 0.0 0.0 0.00 0.00 0.00 98 1016.5
20260508111030 6 0.0 0.0 0.00 0.00 0.00 98 1016.3
20260508110034 6 0.0 0.0 0.00 0.00 0.00 98 1016.7
20260508105059 6 0.0 0.0 0.00 0.00 0.00 98 1016.5
20260508104027 6 0.0 0.0 0.00 0.00 0.00 98 1016.5
20260508103033 6 72 0.0 3.2 0.00 0.00 0.00 98 1016.6
20260508102038 6 96 1.6 4.8 0.00 0.00 0.00 98 1016.5
20260508101042 6 0.0 0.0 0.00 0.00 0.00 98 1016.4
20260508100030 6 0.0 0.0 0.00 0.00 0.00 98 1016.3